Year,Month,Day,Hour,Minute,Value (Times are PST for temperature in C)
2018,03,31,10,14,8.20
2018,03,31,10,15,8.20
2018,03,31,10,16,8.20
2018,03,31,10,17,8.20
2018,03,31,10,18,8.10
2018,03,31,10,19,8.10
2018,03,31,10,20,8.10
2018,03,31,10,21,8.10
2018,03,31,10,22,8.10
2018,03,31,10,23,8.10
2018,03,31,10,24,8.10
2018,03,31,10,25,8.10
2018,03,31,10,26,8.10
2018,03,31,10,27,8.10
2018,03,31,10,28,8.10
2018,03,31,10,29,8.20
2018,03,31,10,30,8.20
2018,03,31,10,31,8.20
2018,03,31,10,32,8.20
2018,03,31,10,33,8.20
2018,03,31,10,34,8.30
2018,03,31,10,35,8.30
2018,03,31,10,36,8.30
2018,03,31,10,37,8.40
2018,03,31,10,38,8.40
2018,03,31,10,39,8.40
2018,03,31,10,40,8.50
2018,03,31,10,41,8.60
2018,03,31,10,42,8.60
2018,03,31,10,43,8.60
2018,03,31,10,44,8.70
2018,03,31,10,45,8.70
2018,03,31,10,46,8.80
2018,03,31,10,47,8.80
2018,03,31,10,48,8.80
2018,03,31,10,49,8.80
2018,03,31,10,50,8.80
2018,03,31,10,51,8.80
2018,03,31,10,52,8.80
2018,03,31,10,53,8.80
2018,03,31,10,54,8.80
2018,03,31,10,55,8.80
2018,03,31,10,56,8.80
2018,03,31,10,57,8.80
2018,03,31,10,58,8.90
2018,03,31,10,59,8.90
2018,03,31,11,00,8.90
2018,03,31,11,01,9.00
2018,03,31,11,02,9.00
2018,03,31,11,03,9.10
2018,03,31,11,04,9.10
2018,03,31,11,05,9.10
2018,03,31,11,06,9.10
2018,03,31,11,07,9.10
2018,03,31,11,08,9.10
2018,03,31,11,09,9.10
2018,03,31,11,10,9.10
2018,03,31,11,11,9.10
2018,03,31,11,12,9.20
2018,03,31,11,13,9.20
2018,03,31,11,14,9.20
2018,03,31,11,15,9.20
2018,03,31,11,16,9.30
2018,03,31,11,17,9.30
2018,03,31,11,18,9.30
2018,03,31,11,19,9.40
2018,03,31,11,20,9.40
2018,03,31,11,21,9.40
2018,03,31,11,22,9.40
2018,03,31,11,23,9.40
2018,03,31,11,24,9.40
2018,03,31,11,25,9.50
2018,03,31,11,26,9.50
2018,03,31,11,27,9.50
2018,03,31,11,28,9.60
2018,03,31,11,29,9.60
2018,03,31,11,30,9.60
2018,03,31,11,31,9.60
2018,03,31,11,32,9.60
2018,03,31,11,33,9.70
2018,03,31,11,34,9.70
2018,03,31,11,35,9.70
2018,03,31,11,36,9.80
2018,03,31,11,37,9.80
2018,03,31,11,38,9.80
2018,03,31,11,39,9.80
2018,03,31,11,40,9.70
2018,03,31,11,41,9.70
2018,03,31,11,42,9.60
2018,03,31,11,43,9.60
2018,03,31,11,44,9.60
2018,03,31,11,45,9.60
2018,03,31,11,46,9.50
2018,03,31,11,47,9.50
2018,03,31,11,48,9.50
2018,03,31,11,49,9.50
2018,03,31,11,50,9.40
2018,03,31,11,51,9.30
2018,03,31,11,52,9.20
2018,03,31,11,53,9.20
2018,03,31,11,54,9.20
2018,03,31,11,55,9.10
2018,03,31,11,56,9.10
2018,03,31,11,57,9.10
2018,03,31,11,58,9.10
2018,03,31,11,59,9.10
2018,03,31,12,00,9.10
2018,03,31,12,01,9.10
2018,03,31,12,02,9.10
2018,03,31,12,03,9.10
2018,03,31,12,04,9.10
2018,03,31,12,05,9.20
2018,03,31,12,06,9.20
2018,03,31,12,07,9.30
2018,03,31,12,08,9.30
2018,03,31,12,09,9.40
2018,03,31,12,10,9.40
2018,03,31,12,11,9.50
2018,03,31,12,12,9.50
2018,03,31,12,13,9.50
2018,03,31,12,14,9.50
2018,03,31,12,15,9.50
2018,03,31,12,16,9.50
2018,03,31,12,17,9.50
2018,03,31,12,18,9.60
2018,03,31,12,19,9.60
2018,03,31,12,20,9.70
2018,03,31,12,21,9.80
2018,03,31,12,22,9.90
2018,03,31,12,23,10.00
2018,03,31,12,24,10.00
2018,03,31,12,25,10.10
2018,03,31,12,26,10.10
2018,03,31,12,27,10.10
2018,03,31,12,28,10.10
2018,03,31,12,29,10.10
2018,03,31,12,30,10.10
2018,03,31,12,31,10.10
2018,03,31,12,32,10.10
2018,03,31,12,33,10.10
2018,03,31,12,34,10.10
2018,03,31,12,35,10.10
2018,03,31,12,36,10.20
2018,03,31,12,37,10.20
2018,03,31,12,38,10.20
2018,03,31,12,39,10.30
2018,03,31,12,40,10.20
2018,03,31,12,41,10.20
2018,03,31,12,42,10.20
2018,03,31,12,43,10.10
2018,03,31,12,44,10.10
2018,03,31,12,45,10.10
2018,03,31,12,46,10.10
2018,03,31,12,47,10.10
2018,03,31,12,48,10.20
2018,03,31,12,49,10.20
2018,03,31,12,50,10.20
2018,03,31,12,51,10.30
2018,03,31,12,52,10.30
2018,03,31,12,53,10.30
2018,03,31,12,54,10.30
2018,03,31,12,55,10.30
2018,03,31,12,56,10.30
2018,03,31,12,57,10.30
2018,03,31,12,58,10.30
2018,03,31,12,59,10.30
2018,03,31,13,00,10.40
2018,03,31,13,01,10.40
2018,03,31,13,02,10.50
2018,03,31,13,03,10.50
2018,03,31,13,04,10.40
2018,03,31,13,05,10.50
2018,03,31,13,06,10.50
2018,03,31,13,07,10.50
2018,03,31,13,08,10.60
2018,03,31,13,09,10.60
2018,03,31,13,10,10.60
2018,03,31,13,11,10.60
2018,03,31,13,12,10.60
2018,03,31,13,13,10.60
2018,03,31,13,14,10.60
2018,03,31,13,15,10.60
2018,03,31,13,16,10.60
2018,03,31,13,17,10.60
2018,03,31,13,18,10.50
2018,03,31,13,19,10.60
2018,03,31,13,20,10.60
2018,03,31,13,21,10.50
2018,03,31,13,22,10.50
2018,03,31,13,23,10.50
2018,03,31,13,24,10.50
2018,03,31,13,25,10.50
2018,03,31,13,26,10.40
2018,03,31,13,27,10.40
2018,03,31,13,28,10.40
2018,03,31,13,29,10.40
2018,03,31,13,30,10.30
2018,03,31,13,31,10.40
2018,03,31,13,32,10.40
2018,03,31,13,33,10.50
2018,03,31,13,34,10.60
2018,03,31,13,35,10.60
2018,03,31,13,36,10.70
2018,03,31,13,37,10.70
2018,03,31,13,38,10.70
2018,03,31,13,39,10.60
2018,03,31,13,40,10.60
2018,03,31,13,41,10.50
2018,03,31,13,42,10.50
2018,03,31,13,43,10.40
2018,03,31,13,44,10.40
2018,03,31,13,45,10.40
2018,03,31,13,46,10.50
2018,03,31,13,47,10.50
2018,03,31,13,48,10.50
2018,03,31,13,49,10.50
2018,03,31,13,50,10.40
2018,03,31,13,51,10.30
2018,03,31,13,52,10.30
2018,03,31,13,53,10.30
2018,03,31,13,54,10.30
2018,03,31,13,55,10.30
2018,03,31,13,56,10.30
2018,03,31,13,57,10.40
2018,03,31,13,58,10.40
2018,03,31,13,59,10.30
2018,03,31,14,00,10.30
2018,03,31,14,01,10.30
2018,03,31,14,02,10.30
2018,03,31,14,03,10.20
2018,03,31,14,04,10.20
2018,03,31,14,05,10.10
2018,03,31,14,06,10.10
2018,03,31,14,07,10.10
2018,03,31,14,08,10.10
2018,03,31,14,09,10.10
2018,03,31,14,10,10.10
2018,03,31,14,11,10.20
2018,03,31,14,12,10.20
2018,03,31,14,13,10.20
2018,03,31,14,14,10.20
2018,03,31,14,15,10.10
2018,03,31,14,16,10.00
2018,03,31,14,17,10.00
2018,03,31,14,18,9.90
2018,03,31,14,19,9.90
2018,03,31,14,20,9.90
2018,03,31,14,21,9.80
2018,03,31,14,22,9.80
2018,03,31,14,23,9.80
2018,03,31,14,24,9.90
2018,03,31,14,25,9.90
2018,03,31,14,26,9.90
2018,03,31,14,27,9.90
2018,03,31,14,28,9.90
2018,03,31,14,29,9.90
2018,03,31,14,30,9.90
2018,03,31,14,31,9.90
2018,03,31,14,32,9.80
2018,03,31,14,33,9.80
2018,03,31,14,34,9.80
2018,03,31,14,35,9.70
2018,03,31,14,36,9.70
2018,03,31,14,37,9.60
2018,03,31,14,38,9.60
2018,03,31,14,39,9.60
2018,03,31,14,40,9.60
2018,03,31,14,41,9.60
2018,03,31,14,42,9.60
2018,03,31,14,43,9.60
2018,03,31,14,44,9.50
2018,03,31,14,45,9.50
2018,03,31,14,46,9.40
2018,03,31,14,47,9.40
2018,03,31,14,48,9.40
2018,03,31,14,49,9.40
2018,03,31,14,50,9.50
2018,03,31,14,51,9.50
2018,03,31,14,52,9.50
2018,03,31,14,53,9.50
2018,03,31,14,54,9.40
2018,03,31,14,55,9.50
2018,03,31,14,56,9.50
2018,03,31,14,57,9.50
2018,03,31,14,58,9.50
2018,03,31,14,59,9.60
2018,03,31,15,00,9.60
2018,03,31,15,01,9.60
2018,03,31,15,02,9.60
2018,03,31,15,03,9.60
2018,03,31,15,04,9.60
2018,03,31,15,05,9.60
2018,03,31,15,06,9.60
2018,03,31,15,07,9.70
2018,03,31,15,08,9.80
2018,03,31,15,09,9.80
2018,03,31,15,10,9.80
2018,03,31,15,11,9.80
2018,03,31,15,12,9.90
2018,03,31,15,13,9.90
2018,03,31,15,14,9.90
2018,03,31,15,15,9.90
2018,03,31,15,16,9.80
2018,03,31,15,17,9.80
2018,03,31,15,18,9.80
2018,03,31,15,19,9.80
2018,03,31,15,20,9.70
2018,03,31,15,21,9.70
2018,03,31,15,22,9.70
2018,03,31,15,23,9.70
2018,03,31,15,24,9.70
2018,03,31,15,25,9.80
2018,03,31,15,26,9.80
2018,03,31,15,27,9.80
2018,03,31,15,28,9.80
2018,03,31,15,29,9.80
2018,03,31,15,30,9.80
2018,03,31,15,31,9.90
2018,03,31,15,32,9.90
2018,03,31,15,33,9.90
2018,03,31,15,34,10.00
2018,03,31,15,35,10.10
2018,03,31,15,36,10.10
2018,03,31,15,37,10.20
2018,03,31,15,38,10.30
2018,03,31,15,39,10.30
2018,03,31,15,40,10.30
2018,03,31,15,41,10.20
2018,03,31,15,42,10.10
2018,03,31,15,43,10.10
2018,03,31,15,44,10.10
2018,03,31,15,45,10.10
2018,03,31,15,46,10.10
2018,03,31,15,47,10.10
2018,03,31,15,48,10.10
2018,03,31,15,49,10.10
2018,03,31,15,50,10.00
2018,03,31,15,51,10.10
2018,03,31,15,52,10.10
2018,03,31,15,53,10.10
2018,03,31,15,54,10.10
2018,03,31,15,55,10.00
2018,03,31,15,56,10.00
2018,03,31,15,57,10.00
2018,03,31,15,58,10.00
2018,03,31,15,59,10.00
2018,03,31,16,00,10.00
2018,03,31,16,01,10.00
2018,03,31,16,02,10.00
2018,03,31,16,03,10.10
2018,03,31,16,04,10.10
2018,03,31,16,05,10.10
2018,03,31,16,06,10.00
2018,03,31,16,07,10.00
2018,03,31,16,08,9.90
2018,03,31,16,09,9.90
2018,03,31,16,10,9.90
2018,03,31,16,11,9.90
2018,03,31,16,12,10.00
2018,03,31,16,13,10.10
2018,03,31,16,14,10.10
2018,03,31,16,15,10.20
2018,03,31,16,16,10.30
2018,03,31,16,17,10.40
2018,03,31,16,18,10.40
2018,03,31,16,19,10.50
2018,03,31,16,20,10.50
2018,03,31,16,21,10.50
2018,03,31,16,22,10.50
2018,03,31,16,23,10.60
2018,03,31,16,24,10.60
2018,03,31,16,25,10.50
2018,03,31,16,26,10.50
2018,03,31,16,27,10.50
2018,03,31,16,28,10.60
2018,03,31,16,29,10.50
2018,03,31,16,30,10.50
2018,03,31,16,31,10.40
2018,03,31,16,32,10.40
2018,03,31,16,33,10.50
2018,03,31,16,34,10.60
2018,03,31,16,35,10.60
2018,03,31,16,36,10.50
2018,03,31,16,37,10.50
2018,03,31,16,38,10.40
2018,03,31,16,39,10.30
2018,03,31,16,40,10.30
2018,03,31,16,41,10.20
2018,03,31,16,42,10.20
2018,03,31,16,43,10.20
2018,03,31,16,44,10.30
2018,03,31,16,45,10.30
2018,03,31,16,46,10.30
2018,03,31,16,47,10.20
2018,03,31,16,48,10.10
2018,03,31,16,49,10.00
2018,03,31,16,50,10.00
2018,03,31,16,51,9.90
2018,03,31,16,52,9.90
2018,03,31,16,53,10.00
2018,03,31,16,54,10.10
2018,03,31,16,55,10.10
2018,03,31,16,56,10.10
2018,03,31,16,57,10.10
2018,03,31,16,58,10.00
2018,03,31,16,59,10.00
2018,03,31,17,00,9.90
2018,03,31,17,01,10.00
2018,03,31,17,02,10.00
2018,03,31,17,03,10.00
2018,03,31,17,04,10.00
2018,03,31,17,05,10.00
2018,03,31,17,06,10.00
2018,03,31,17,07,10.00
2018,03,31,17,08,10.00
2018,03,31,17,09,9.90
2018,03,31,17,10,9.80
2018,03,31,17,11,9.80
2018,03,31,17,12,9.80
2018,03,31,17,13,9.80
2018,03,31,17,14,9.90
2018,03,31,17,15,9.90
2018,03,31,17,16,9.80
2018,03,31,17,17,9.80
2018,03,31,17,18,9.80
2018,03,31,17,19,9.80
2018,03,31,17,20,9.80
2018,03,31,17,21,9.80
2018,03,31,17,22,9.90
2018,03,31,17,23,9.90
2018,03,31,17,24,9.90
2018,03,31,17,25,9.90
2018,03,31,17,26,9.80
2018,03,31,17,27,9.80
2018,03,31,17,28,9.80
2018,03,31,17,29,9.80
2018,03,31,17,30,9.80
2018,03,31,17,31,9.80
2018,03,31,17,32,9.80
2018,03,31,17,33,9.80
2018,03,31,17,34,9.80
2018,03,31,17,35,9.80
2018,03,31,17,36,9.80
2018,03,31,17,37,9.90
2018,03,31,17,38,9.90
2018,03,31,17,39,9.90
2018,03,31,17,40,10.00
2018,03,31,17,41,10.00
2018,03,31,17,42,10.10
2018,03,31,17,43,10.10
2018,03,31,17,44,10.10
2018,03,31,17,45,10.00
2018,03,31,17,46,10.00
2018,03,31,17,47,10.00
2018,03,31,17,48,10.00
2018,03,31,17,49,10.00
2018,03,31,17,50,9.90
2018,03,31,17,51,9.90
2018,03,31,17,52,9.90
2018,03,31,17,53,9.90
2018,03,31,17,54,9.90
2018,03,31,17,55,9.90
2018,03,31,17,56,9.80
2018,03,31,17,57,9.80
2018,03,31,17,58,9.80
2018,03,31,17,59,9.80
2018,03,31,18,00,9.70
2018,03,31,18,01,9.70
2018,03,31,18,02,9.60
2018,03,31,18,03,9.60
2018,03,31,18,04,9.60
2018,03,31,18,05,9.60
2018,03,31,18,06,9.60
2018,03,31,18,07,9.60
2018,03,31,18,08,9.50
2018,03,31,18,09,9.50
2018,03,31,18,10,9.40
2018,03,31,18,11,9.40
2018,03,31,18,12,9.40
2018,03,31,18,13,9.40
2018,03,31,18,14,9.30
2018,03,31,18,15,9.30
2018,03,31,18,16,9.30
2018,03,31,18,17,9.30
2018,03,31,18,18,9.30
2018,03,31,18,19,9.30
2018,03,31,18,20,9.30
2018,03,31,18,21,9.30
2018,03,31,18,22,9.30
2018,03,31,18,23,9.30
2018,03,31,18,24,9.30
2018,03,31,18,25,9.30
2018,03,31,18,26,9.20
2018,03,31,18,27,9.20
2018,03,31,18,28,9.20
2018,03,31,18,29,9.20
2018,03,31,18,30,9.20
2018,03,31,18,31,9.20
2018,03,31,18,32,9.20
2018,03,31,18,33,9.20
2018,03,31,18,34,9.20
2018,03,31,18,35,9.20
2018,03,31,18,36,9.20
2018,03,31,18,37,9.20
2018,03,31,18,38,9.20
2018,03,31,18,39,9.30
2018,03,31,18,40,9.20
2018,03,31,18,41,9.20
2018,03,31,18,42,9.20
2018,03,31,18,43,9.20
2018,03,31,18,44,9.20
2018,03,31,18,45,9.20
2018,03,31,18,46,9.20
2018,03,31,18,47,9.20
2018,03,31,18,48,9.20
2018,03,31,18,49,9.20
2018,03,31,18,50,9.20
2018,03,31,18,51,9.20
2018,03,31,18,52,9.20
2018,03,31,18,53,9.20
2018,03,31,18,54,9.20
